Location: Zlin
(49.2330°N, 17.6670°E)
Time: 07:33:48
(UTC+01:00)

ISS - Visible Passes

Search period start: 11 February 2016 00:00
Search period end: 21 February 2016 00:00
Orbit: 399 x 408 km, 51.6° (Epoch: 10 February)

Date Brightness Start Highest point End Pass type
(mag) Time Alt. Az. Time Alt. Az. Time Alt. Az.
11 Feb -3.0 17:37:41 10° W 17:40:55 58° N 17:44:07 10° ENE visible
11 Feb -2.3 19:14:21 10° WNW 19:16:45 43° NW 19:16:45 43° NW visible
12 Feb -3.1 18:21:37 10° WNW 18:24:49 55° N 18:26:14 29° ENE visible
12 Feb -0.2 19:58:07 10° WNW 19:58:52 16° WNW 19:58:52 16° WNW visible
13 Feb -3.2 19:05:22 10° WNW 19:08:21 73° WNW 19:08:21 73° WNW visible
14 Feb -3.3 18:12:36 10° WNW 18:15:51 69° NNE 18:17:51 21° E visible
14 Feb -0.7 19:49:11 10° W 19:50:29 20° W 19:50:29 20° W visible
15 Feb -2.9 18:56:18 10° WNW 18:59:28 53° SSW 19:00:02 45° SSE visible
16 Feb -3.3 18:03:26 10° WNW 18:06:42 81° SSW 18:09:39 12° ESE visible
16 Feb -0.8 19:40:26 10° W 19:42:17 18° SW 19:42:17 18° SW visible
17 Feb -1.7 18:47:13 10° W 18:50:06 29° SW 18:52:00 17° SSE visible
18 Feb -2.4 17:54:12 10° WNW 17:57:21 47° SSW 18:00:28 10° SE visible
19 Feb -0.5 18:38:24 10° W 18:40:29 16° SW 18:42:34 10° S visible
20 Feb -1.1 17:44:59 10° W 17:47:46 26° SW 17:50:31 10° SSE visible
